| time (UTC) | temp C | wind direction | speed KPH | gust KPH | rain 1hr cm | rain 24hr cm | rain mn cm | humidity % | barometer mb |
| 20260506222725 | 3 | 317 | 4.8 | 6.4 | 0.00 | 0.00 | 0.00 | 65 | 1015.3 |
| 20260506220725 | 3 | 329 | 6.4 | 9.7 | 0.00 | 0.00 | 0.00 | 58 | 1015.1 |
| 20260506214725 | 4 | 311 | 4.8 | 6.4 | 0.00 | 0.00 | 0.00 | 53 | 1015.0 |
| 20260506212725 | 4 | 249 | 4.8 | 6.4 | 0.00 | 0.00 | 0.00 | 58 | 1014.9 |
| 20260506210724 | 5 | 243 | 6.4 | 8.0 | 0.00 | 0.00 | 0.00 | 51 | 1014.8 |
| 20260506204724 | 5 | 273 | 6.4 | 11.3 | 0.00 | 0.00 | 0.00 | 51 | 1014.7 |
| 20260506202724 | 5 | 290 | 11.3 | 14.5 | 0.00 | 0.00 | 0.00 | 41 | 1014.7 |
| 20260506200725 | 5 | 285 | 11.3 | 14.5 | 0.00 | 0.00 | 0.00 | 43 | 1014.6 |
| 20260506194724 | 6 | 287 | 11.3 | 14.5 | 0.00 | 0.00 | 0.00 | 42 | 1014.6 |
| 20260506192724 | 6 | 281 | 12.9 | 16.1 | 0.00 | 0.00 | 0.00 | 44 | 1014.6 |
| 20260506190724 | 6 | 268 | 12.9 | 16.1 | 0.00 | 0.00 | 0.00 | 44 | 1014.4 |
| 20260506184723 | 7 | 264 | 14.5 | 17.7 | 0.00 | 0.00 | 0.00 | 38 | 1014.3 |
| 20260506182725 | 7 | 257 | 16.1 | 17.7 | 0.00 | 0.00 | 0.00 | 44 | 1014.1 |
| 20260506180724 | 7 | 252 | 16.1 | 19.3 | 0.00 | 0.00 | 0.00 | 44 | 1013.9 |
| 20260506174724 | 7 | 247 | 17.7 | 20.9 | 0.00 | 0.00 | 0.00 | 36 | 1013.7 |
| 20260506172723 | 7 | 248 | 19.3 | 22.5 | 0.00 | 0.00 | 0.00 | 39 | 1013.6 |
| 20260506170723 | 7 | 270 | 16.1 | 20.9 | 0.00 | 0.00 | 0.00 | 44 | 1013.5 |
| 20260506164723 | 7 | 252 | 17.7 | 27.4 | 0.00 | 0.00 | 0.00 | 39 | 1013.3 |
| 20260506160723 | 7 | 256 | 20.9 | 29.0 | 0.00 | 0.00 | 0.00 | 30 | 1013.3 |
| 20260506154724 | 8 | 274 | 19.3 | 30.6 | 0.00 | 0.00 | 0.00 | 31 | 1013.4 |
| 20260506152723 | 7 | 275 | 22.5 | 32.2 | 0.00 | 0.00 | 0.00 | 34 | 1013.3 |
| 20260506150723 | 7 | 254 | 27.4 | 35.4 | 0.00 | 0.00 | 0.00 | 31 | 1013.2 |
| 20260506144722 | 7 | 271 | 20.9 | 29.0 | 0.00 | 0.00 | 0.00 | 32 | 1013.3 |
| 20260506142723 | 8 | 268 | 24.1 | 32.2 | 0.00 | 0.00 | 0.00 | 27 | 1013.2 |
| 20260506140722 | 8 | 273 | 24.1 | 37.0 | 0.00 | 0.00 | 0.00 | 24 | 1013.2 |
| 20260506134723 | 7 | 272 | 30.6 | 41.8 | 0.00 | 0.00 | 0.00 | 29 | 1013.1 |
| 20260506132722 | 8 | 267 | 20.9 | 30.6 | 0.00 | 0.00 | 0.00 | 28 | 1013.0 |
| 20260506130722 | 7 | 263 | 25.7 | 32.2 | 0.00 | 0.00 | 0.00 | 36 | 1012.8 |
| 20260506124722 | 8 | 284 | 27.4 | 38.6 | 0.00 | 0.00 | 0.00 | 28 | 1012.8 |
| 20260506122722 | 7 | 263 | 20.9 | 35.4 | 0.00 | 0.00 | 0.00 | 35 | 1012.7 |
| 20260506120722 | 7 | 247 | 29.0 | 40.2 | 0.00 | 0.00 | 0.00 | 29 | 1012.6 |
| 20260506114723 | 7 | 274 | 30.6 | 43.5 | 0.00 | 0.00 | 0.00 | 31 | 1012.5 |
| 20260506112723 | 7 | 263 | 29.0 | 41.8 | 0.00 | 0.00 | 0.00 | 36 | 1012.4 |
| 20260506110722 | 7 | 238 | 27.4 | 33.8 | 0.00 | 0.00 | 0.00 | 31 | 1012.3 |
| 20260506104724 | 7 | 256 | 25.7 | 46.7 | 0.00 | 0.00 | 0.00 | 33 | 1012.3 |
| 20260506102724 | 7 | 273 | 32.2 | 41.8 | 0.00 | 0.00 | 0.00 | 31 | 1012.2 |
| 20260506100724 | 7 | 250 | 27.4 | 41.8 | 0.00 | 0.00 | 0.00 | 31 | 1012.0 |
| 20260506094724 | 7 | 248 | 32.2 | 45.1 | 0.00 | 0.00 | 0.00 | 34 | 1011.7 |
| 20260506092723 | 6 | 263 | 32.2 | 40.2 | 0.00 | 0.00 | 0.00 | 37 | 1011.7 |
| 20260506090723 | 6 | 260 | 30.6 | 41.8 | 0.00 | 0.00 | 0.00 | 38 | 1011.6 |
| 20260506084724 | 6 | 242 | 25.7 | 35.4 | 0.00 | 0.00 | 0.00 | 40 | 1011.6 |
| 20260506082724 | 6 | 259 | 25.7 | 41.8 | 0.00 | 0.00 | 0.00 | 42 | 1011.5 |
| 20260506080723 | 6 | 272 | 27.4 | 40.2 | 0.00 | 0.00 | 0.00 | 41 | 1011.5 |
| 20260506072724 | 5 | 253 | 25.7 | 37.0 | 0.00 | 0.00 | 0.00 | 49 | 1011.2 |
| 20260506070723 | 5 | 261 | 30.6 | 38.6 | 0.00 | 0.00 | 0.00 | 43 | 1010.9 |
| 20260506060723 | 4 | 255 | 19.3 | 25.7 | 0.00 | 0.00 | 0.00 | 56 | 1010.8 |
| 20260506050723 | 3 | 249 | 14.5 | 17.7 | 0.00 | 0.00 | 0.00 | 70 | 1010.3 |
| 20260506044723 | 2 | 227 | 16.1 | 19.3 | 0.00 | 0.00 | 0.00 | 75 | 1010.2 |
| 20260506042723 | 2 | 227 | 14.5 | 17.7 | 0.00 | 0.00 | 0.00 | 78 | 1010.0 |
| 20260506040722 | 2 | 233 | 16.1 | 20.9 | 0.00 | 0.00 | 0.00 | 77 | 1009.8 |
| 20260506034723 | 2 | 233 | 17.7 | 22.5 | 0.00 | 0.00 | 0.00 | 78 | 1009.6 |
| 20260506032722 | 2 | 232 | 17.7 | 20.9 | 0.00 | 0.00 | 0.00 | 80 | 1009.3 |
| 20260506030723 | 1 | 232 | 17.7 | 22.5 | 0.00 | 0.00 | 0.00 | 81 | 1009.1 |
| 20260506024722 | 2 | 0.0 | 0.0 | 0.00 | 0.00 | 0.00 | 81 | 1008.9 | |
| 20260506022722 | 2 | 0.0 | 0.0 | 0.00 | 0.00 | 0.00 | 82 | 1008.6 | |
| 20260506020722 | 2 | 255 | 19.3 | 24.1 | 0.00 | 0.00 | 0.00 | 82 | 1008.4 |
| 20260506014722 | 2 | 248 | 19.3 | 27.4 | 0.00 | 0.00 | 0.00 | 82 | 1008.3 |
| 20260506012722 | 2 | 234 | 19.3 | 22.5 | 0.00 | 0.00 | 0.00 | 84 | 1008.3 |
| 20260506010722 | 2 | 235 | 19.3 | 22.5 | 0.00 | 0.00 | 0.00 | 84 | 1008.1 |
| 20260506004722 | 2 | 224 | 17.7 | 22.5 | 0.00 | 0.00 | 0.00 | 85 | 1007.7 |
| 20260506002722 | 2 | 231 | 19.3 | 25.7 | 0.00 | 0.00 | 0.00 | 82 | 1007.7 |
| 20260506000722 | 2 | 232 | 16.1 | 20.9 | 0.00 | 0.00 | 0.00 | 80 | 1007.6 |
| 20260505234722 | 2 | 232 | 14.5 | 19.3 | 0.00 | 0.00 | 0.00 | 80 | 1007.5 |
| 20260505232722 | 2 | 233 | 17.7 | 22.5 | 0.00 | 0.00 | 0.00 | 78 | 1007.5 |
| 20260505230722 | 2 | 227 | 14.5 | 19.3 | 0.00 | 0.00 | 0.00 | 75 | 1007.5 |
| 20260505224722 | 3 | 240 | 19.3 | 22.5 | 0.00 | 0.00 | 0.00 | 73 | 1007.4 |